Regional Weather Roundup
Issued by NWS

Home | Current Version | Previous Version | Text Only | Print | Product List | Glossary On
Versions: 1 2 3 4 5 6 7 8 9 10 11 12 13 14 15 16 17 18 19 20 21 22 23 24 25 26 27 28 29 30 31 32 33 34 35 36 37 38 39 40 41 42 43 44 45 46 47 48 49 50
000
ASPQ40 PGUM 310810
RWRPQ
WEATHER ROUNDUP FOR THE MARIANAS AND MICRONESIA
NATIONAL WEATHER SERVICE TIYAN GU
600 PM CHST MON AUG 31 2015

GUZ001>004-310900-
MARIANA ISLANDS-

CITY           SKY/WX    TMP DP  RH WIND       PRES   REMARKS
GUAM AIRPORT   PTCLDY    84  75  74 E7        29.83R HX  92
ANDERSEN AFB   PTCLDY    82  75  78 E8        29.84R
ROTA AIRPORT   PTCLDY    82  77  83 E8        29.84R HX  91
TINIAN AP      PTCLDY    84  77  79 SE6       29.82R HX  94
SAIPAN AP      PTCLDY    82  77  83 E7        29.83S HX  91

$$

PMZ161-310900-
REPUBLIC OF PALAU-

CITY           SKY/WX    TMP DP  RH WIND       PRES   REMARKS
KOROR AP       PTSUNNY   84  77  79 W10       29.79R HX  94
KOROR WSO      CLOUDY    84  77  79 W13       29.81R HX  94

$$

PMZ171>174-310900-
FEDERATED STATES OF MICRONESIA-

CITY           SKY/WX    TMP DP  RH WIND       PRES   REMARKS
YAP AIRPORT    PTSUNNY   79  77  94 CALM      29.79R
CHUUK AP       PTCLDY    84  77  79 W8        29.81R HX  94
POHNPEI AP     NOT AVBL
POHNPEI WSO    CLOUDY    82  77  83 W7        29.83R HX  91
KOSRAE AP      NOT AVBL

$$

PMZ181-310900-
REPUBLIC OF THE MARSHALL ISLANDS-

CITY           SKY/WX    TMP DP  RH WIND       PRES   REMARKS
KWAJALEIN AP   CLEAR     84  75  74 E6        29.78R HX  92
MAJURO AP      NOT AVBL
MAJURO WSO     MOCLDY    82  75  78 S12       29.76R

$$



USA.gov is the U.S. government's official web portal to all federal, state and local government web resources and services.